Temperature
8 7 7 8 8 9 9 8 9 9 10 10 9 9 10 10 10 10 11 12 13 14 14 14 14 14 14 14 14 14 14 14 14 13 13 13 12 12 12 12 12 11 11 11
7 7 8 8 8 9 9 9 9 9 10 10 9 9 9 9 9 10 11 12 12 13 13 14 14 14 14 14 14 14 14 13 13 13 13 13 12 12 12 11 11 11 11 11
7 8 9 8 8 8 8 8 8 9 9 9 9 9 9 9 10 10 11 12 12 13 13 13 14 14 14 14 14 14 13 13 13 13 12 12 12 12 11 11 11 11 11 10
7 8 8 8 8 8 8 9 9 9 8 8 9 8 9 9 9 9 10 11 12 12 13 13 13 13 13 13 13 13 13 13 13 12 12 12 12 12 11 11 11 10 10 10
7 8 8 8 8 8 8 9 9 8 8 7 7 8 8 8 9 10 9 10 11 12 13 13 13 13 13 13 13 13 13 12 12 12 12 12 11 11 11 11 10 10 10 9
8 8 8 8 9 9 8 8 8 7 7 7 7 7 8 8 9 10 9 10 11 12 12 12 12 12 12 12 12 12 12 12 12 11 11 11 11 11 10 10 10 10 9 9
7 8 8 8 8 8 8 8 7 7 7 7 7 7 8 9 9 9 9 10 11 11 12 12 12 12 12 12 12 12 12 12 11 11 11 11 10 10 10 10 9 9 9 9
7 7 8 8 8 7 8 8 8 8 7 7 7 7 8 8 8 9 10 10 10 11 11 11 12 12 11 11 11 11 11 11 11 11 10 10 10 10 9 9 9 9 8 8
7 7 8 8 8 8 7 7 8 7 6 6 6 6 7 8 8 8 8 9 10 10 11 11 11 11 11 11 11 11 11 10 10 10 10 10 9 9 9 8 8 8 8 7
6 7 7 7 8 8 8 7 6 7 7 7 7 7 8 9 8 8 7 8 9 10 10 10 10 10 10 10 10 10 10 10 10 9 9 9 9 9 8 8 8 7 7 7
6 6 6 7 7 7 7 7 7 6 6 6 7 8 8 8 8 8 7 8 9 10 10 10 10 10 10 10 10 10 10 9 9 9 9 8 8 8 8 7 7 7 7 7
6 5 5 6 7 7 7 7 6 6 6 5 5 7 9 7 7 7 7 8 9 9 9 10 9 9 10 10 9 9 9 9 9 8 8 8 7 7 7 7 7 6 6 6
5 5 5 6 6 6 6 6 6 6 5 4 5 8 8 7 7 7 8 8 9 9 9 9 9 9 9 9 9 9 8 8 8 8 8 7 7 7 6 6 6 6 6 5
6 5 5 6 6 5 5 5 5 6 5 5 5 7 8 8 7 7 7 8 8 8 8 8 9 8 8 8 8 8 8 8 7 7 7 7 6 6 6 6 5 5 5 5
5 4 5 5 6 5 6 6 5 6 6 5 6 6 8 8 7 7 7 7 7 7 8 8 8 8 7 7 7 7 7 7 7 7 6 6 6 5 5 5 5 5 4 4
4 4 4 4 5 5 5 6 6 6 6 6 6 6 7 7 7 6 6 6 6 7 7 7 7 7 7 7 7 7 7 6 6 6 6 5 5 5 5 4 4 4 4 4
3 3 4 4 4 5 5 5 6 5 5 6 6 7 6 6 6 6 6 6 6 7 7 7 7 7 6 6 6 6 6 6 6 5 5 5 5 4 4 4 4 3 3 3
3 3 3 3 4 4 5 5 6 6 5 5 6 6 6 6 6 7 7 7 7 7 7 6 6 6 6 6 6 6 5 5 5 5 4 4 4 4 4 3 3 3 3 2
3 3 3 3 3 4 5 5 5 5 5 5 5 5 5 5 5 5 6 6 6 6 6 6 6 6 5 5 5 5 5 5 4 4 4 3 3 3 3 3 2 2 2 2
3 3 3 3 3 4 5 5 5 5 4 4 4 4 4 4 4 4 6 6 6 6 6 6 5 5 5 4 4 4 4 4 3 3 3 3 3 2 2 2 2 1 1 1
2 2 2 2 3 3 4 4 5 5 4 4 4 4 4 3 4 5 5 5 5 5 5 5 4 4 4 4 4 4 3 3 3 3 2 2 2 2 1 1 1 1 0 0
2 2 2 2 2 3 3 3 4 4 4 4 4 4 4 4 4 4 4 4 4 4 4 4 4 3 3 3 3 3 3 2 2 2 2 1 1 1 1 0 0 -0 -0 -0
1 1 1 2 2 2 3 3 4 4 4 4 4 4 4 3 4 4 3 3 3 3 3 3 3 3 3 2 2 2 2 2 1 1 1 1 0 0 -0 -0 -0 -1 -1 -1
-0 1 1 1 1 2 2 3 3 4 4 4 4 4 4 3 3 3 3 2 2 2 2 2 2 2 2 2 1 1 1 1 1 0 0 -0 -0 -1 -1 -1 -1 -1 -2 -2
-0 -0 0 0 1 1 2 3 3 3 3 3 3 3 3 3 3 2 2 2 2 2 2 2 2 1 1 1 1 0 0 -0 -0 -0 -1 -1 -1 -1 -2 -2 -2 -2 -2 -3
-1 -1 -0 1 1 1 1 2 2 3 3 3 2 2 2 2 2 2 1 1 1 1 1 1 1 1 1 0 -0 -0 -1 -1 -1 -1 -1 -2 -2 -2 -2 -2 -2 -3 -3 -3
Wind_Speed
4 5 11 13 12 6 5 5 6 6 3 4 10 14 15 10 9 11 10 9 9 9 6 4 3 3 3 3 4 5 5 4 4 3 3 2 2 1 1 1 1 2 2 2
3 10 10 7 8 7 6 7 7 6 4 4 8 14 13 10 10 11 11 11 9 7 4 4 3 3 4 4 5 4 5 5 5 4 4 3 2 1 1 1 0 1 1 1
12 5 7 9 8 10 10 10 8 7 5 4 6 11 9 6 6 7 8 8 7 8 8 6 4 4 4 5 6 6 6 5 5 4 3 2 2 1 1 0 1 1 0 1
9 6 6 8 10 11 11 9 8 6 3 5 1 7 8 5 6 7 8 6 7 7 6 5 5 5 5 6 5 5 5 5 4 5 5 5 3 2 2 1 1 1 0 0
9 7 9 11 11 11 6 4 6 5 4 5 4 5 9 3 6 8 7 7 7 7 7 6 6 6 5 4 4 4 4 3 3 4 5 5 3 2 1 0 0 1 1 1
6 5 7 8 5 9 5 4 2 1 1 7 9 8 8 6 8 7 7 7 7 6 5 4 3 3 2 2 3 4 4 3 3 4 4 5 4 3 2 1 1 1 1 2
6 6 5 4 5 5 6 5 1 2 4 8 5 7 10 9 7 8 8 8 7 5 4 4 4 4 3 3 4 4 4 3 3 4 4 4 4 4 3 2 2 2 2 2
8 7 9 7 8 8 10 9 7 7 6 4 4 9 9 7 5 5 5 5 4 4 4 4 5 5 5 5 5 4 4 3 3 4 3 3 3 2 2 2 2 2 2 3
8 6 3 6 4 9 9 8 6 3 2 3 6 7 9 4 3 3 3 3 4 4 4 4 4 4 4 5 5 5 5 3 3 3 3 2 2 2 1 1 1 1 2 2
5 4 3 4 3 2 5 8 5 5 5 6 6 6 5 5 5 4 4 5 5 4 4 4 4 4 4 4 4 4 5 5 3 3 2 2 1 1 1 0 1 2 2 3
3 3 2 4 8 10 6 6 5 5 4 5 4 6 5 6 5 5 5 5 5 5 4 4 3 3 3 3 4 4 4 4 3 3 2 2 1 0 1 0 1 2 2 3
5 3 4 6 3 5 7 8 8 6 6 5 4 7 4 4 3 3 4 3 3 3 3 3 3 3 4 3 3 4 4 4 3 3 3 2 1 1 1 1 2 2 3 3
5 4 2 1 1 3 5 6 8 5 4 5 6 7 3 2 2 2 2 2 2 2 2 2 3 3 4 3 3 3 3 3 3 3 3 2 1 1 1 2 2 3 3 4
4 4 6 8 5 6 6 7 8 8 7 7 9 9 8 6 5 4 3 3 2 3 3 3 3 3 3 3 3 3 2 2 3 3 3 2 1 0 1 2 2 3 3 4
4 4 5 6 4 5 7 10 12 13 12 10 10 11 12 9 6 5 3 2 2 2 3 4 4 3 3 3 2 2 2 2 2 3 2 1 0 1 1 2 2 3 4 4
2 3 2 4 5 5 7 11 14 15 12 12 10 13 10 7 3 3 4 4 4 4 4 4 4 4 4 4 3 2 2 1 2 2 1 1 0 1 2 2 3 4 4 5
3 3 2 3 2 2 8 12 14 10 9 10 14 14 6 5 5 6 5 5 5 5 4 4 4 4 4 3 3 3 2 1 2 1 1 0 0 1 2 3 4 4 4 4
5 4 2 2 2 8 7 3 8 10 9 10 9 7 6 7 5 3 3 5 5 4 4 4 4 3 2 2 2 2 2 2 2 1 0 0 0 1 2 3 4 4 4 4
8 6 3 3 4 6 6 3 4 7 7 6 9 7 4 2 1 3 2 3 4 3 4 4 4 4 3 3 3 3 2 2 2 1 1 1 1 2 2 3 4 4 4 5
6 6 5 4 4 6 5 3 2 3 4 2 4 4 3 3 2 4 1 2 2 3 3 3 3 3 3 2 3 3 2 1 0 1 1 1 1 2 2 3 4 4 4 5
4 4 7 6 5 6 5 4 1 4 4 1 2 3 3 4 5 2 2 2 3 3 3 4 4 3 2 2 3 3 2 1 1 1 1 1 1 2 2 3 3 4 4 5
5 4 5 4 5 6 3 2 3 3 1 0 2 2 3 3 2 2 2 3 3 4 3 3 3 2 1 1 3 2 1 1 0 1 1 2 2 2 2 2 3 4 4 5
4 5 3 5 5 3 2 2 3 1 1 1 1 2 3 3 2 2 2 3 3 3 3 3 3 2 1 1 2 2 0 0 1 1 1 2 2 2 2 2 3 3 3 3
3 1 2 3 5 4 3 3 2 1 1 2 1 2 2 2 3 3 3 3 3 2 2 2 3 2 1 1 2 1 0 1 1 1 2 2 2 3 3 2 2 3 3 4
4 2 2 4 5 4 4 3 3 1 1 1 1 1 2 3 3 3 3 3 2 2 1 2 2 2 1 1 1 1 1 1 1 1 2 2 2 2 3 3 3 4 4 4
3 4 4 6 4 4 5 4 3 2 2 1 1 1 1 3 3 3 3 3 2 2 2 1 1 1 1 1 1 1 1 0 0 1 2 2 2 2 3 3 5 6 7 9
Wind_Direction
157 173 206 206 203 202 183 198 240 251 254 240 249 264 270 265 255 254 254 246 241 242 246 236 217 198 178 180 183 186 176 176 163 159 162 170 196 212 210 208 185 170 173 171
154 229 220 186 194 213 215 235 252 279 277 254 271 272 266 253 240 237 238 238 233 234 239 233 211 192 188 192 190 185 184 180 176 178 176 175 178 187 199 214 167 138 156 170
198 216 186 185 195 207 222 222 232 250 309 298 295 286 263 257 239 246 240 234 228 220 219 219 212 209 196 194 193 187 185 181 178 165 142 113 89 75 100 260 254 275 164 167
221 228 184 192 206 195 231 219 213 226 260 280 258 284 270 255 264 253 248 240 235 232 218 212 205 207 206 206 195 184 173 172 170 159 157 161 171 197 221 217 216 305 5 17
218 197 194 207 209 188 205 180 191 210 218 273 235 241 278 261 251 250 247 239 236 228 214 209 205 206 208 196 183 179 157 157 160 159 162 160 169 187 174 95 111 309 317 332
225 207 200 203 195 180 154 98 71 84 173 257 222 208 270 234 223 238 242 242 239 230 214 209 204 189 186 170 162 156 146 151 150 149 155 159 163 161 144 196 231 281 301 299
224 225 206 169 149 163 157 141 170 250 230 246 190 207 249 245 227 222 234 240 236 217 197 193 186 180 174 168 166 155 149 154 151 145 152 159 164 164 178 199 214 244 273 277
194 224 200 189 185 178 187 174 183 204 220 260 200 229 252 256 248 236 235 233 222 204 196 198 197 185 178 174 168 158 156 156 150 144 148 148 151 165 188 204 212 235 253 260
193 220 185 188 172 158 170 198 182 157 191 245 246 270 295 271 274 244 233 223 220 212 205 200 192 182 174 169 167 161 156 147 147 149 148 144 148 152 186 222 230 258 274 283
171 209 210 180 135 184 164 152 145 182 195 236 261 251 246 264 261 252 234 229 237 221 206 196 189 182 175 169 161 151 155 156 155 145 141 136 145 157 168 200 261 277 283 288
172 190 196 169 192 185 157 171 173 175 193 192 244 260 227 229 231 229 234 235 231 219 205 194 186 172 155 145 144 145 147 141 135 132 128 120 101 72 79 17 286 285 295 299
171 175 214 223 229 191 179 181 170 182 212 198 213 264 276 251 250 231 240 243 232 216 200 176 163 148 138 141 143 147 147 140 144 138 127 123 99 58 50 340 310 313 312 310
160 169 174 203 220 183 198 192 186 165 161 190 205 258 297 320 317 279 248 244 233 206 184 152 142 146 148 147 145 143 143 144 140 128 120 109 92 54 1 326 323 329 323 320
164 181 199 205 208 184 201 202 191 183 208 220 226 252 280 282 283 288 273 251 236 216 192 170 160 157 150 147 146 141 135 139 136 124 116 108 90 350 330 332 332 326 321 319
168 211 224 247 245 205 217 212 200 209 213 217 232 238 255 257 257 259 251 245 234 230 208 182 170 165 155 146 142 139 140 143 136 122 113 119 36 346 345 339 329 326 325 322
167 207 208 258 246 233 243 232 220 222 223 229 241 254 255 267 265 257 247 226 226 224 211 190 172 163 166 167 161 146 146 144 123 126 144 138 63 355 337 328 329 331 328 325
190 177 188 246 240 238 251 226 218 217 213 206 230 243 239 251 245 234 228 221 219 222 201 182 178 176 176 172 161 166 173 143 133 143 144 90 43 337 323 329 336 329 322 322
193 187 192 204 167 232 245 226 207 215 233 222 226 235 226 228 236 235 217 207 220 210 179 173 169 164 159 143 140 140 130 127 124 102 38 346 330 316 321 329 325 319 318 317
196 188 196 191 223 267 286 257 192 201 245 233 228 236 235 223 25 314 246 190 201 190 168 165 161 156 144 137 137 120 105 99 89 60 297 286 285 301 314 316 314 314 317 318
182 184 196 196 210 237 256 287 258 157 255 264 207 222 218 153 204 252 219 154 146 131 129 132 127 119 123 132 127 118 119 106 132 273 287 302 301 295 300 303 307 311 313 311
164 186 209 216 228 256 276 292 122 173 243 269 187 200 186 190 207 191 132 121 122 117 115 117 116 121 142 139 129 129 131 193 257 311 333 332 321 306 297 304 310 315 318 320
180 181 197 195 217 247 304 96 169 223 284 211 197 202 192 188 150 131 130 126 113 105 100 107 109 99 89 132 138 137 174 242 9 20 340 325 319 317 324 323 319 319 319 322
201 200 192 199 221 266 240 227 264 252 242 266 238 227 177 168 172 162 141 123 116 116 117 118 122 109 65 102 135 143 234 39 45 15 331 323 329 328 320 313 313 319 319 319
268 228 178 242 265 282 289 292 305 304 262 274 250 203 162 164 165 155 141 127 118 112 118 114 109 101 58 47 66 104 26 51 56 359 332 331 331 325 322 316 309 308 308 308
236 203 208 246 271 303 302 283 276 306 347 6 23 108 149 141 149 153 149 147 144 131 119 122 129 134 140 94 56 29 29 56 27 347 333 329 322 315 315 314 303 300 286 291
217 206 212 243 243 233 267 290 305 298 290 239 160 83 104 144 157 151 148 143 136 131 120 116 120 137 152 112 28 7 3 44 26 328 322 314 313 313 313 314 318 316 314 316
Height
1460 1464 1463 1463 1465 1467 1469 1472 1472 1468 1465 1466 1464 1460 1454 1451 1452 1451 1450 1450 1450 1451 1453 1454 1456 1458 1459 1461 1463 1464 1466 1468 1469 1470 1471 1472 1473 1474 1474 1475 1476 1476 1477 1477
1461 1460 1456 1460 1463 1466 1468 1470 1470 1467 1465 1464 1463 1457 1450 1447 1446 1445 1445 1445 1445 1446 1448 1450 1452 1454 1455 1457 1458 1460 1462 1464 1465 1466 1468 1469 1470 1471 1472 1472 1473 1473 1473 1474
1454 1453 1453 1457 1461 1465 1466 1468 1468 1468 1466 1463 1464 1455 1447 1442 1441 1441 1440 1440 1441 1442 1443 1445 1447 1449 1451 1453 1454 1456 1458 1460 1462 1463 1465 1466 1467 1467 1468 1469 1469 1470 1470 1470
1451 1450 1451 1454 1457 1460 1462 1461 1463 1465 1470 1470 1466 1464 1446 1441 1439 1437 1436 1436 1437 1438 1440 1441 1443 1445 1447 1449 1451 1452 1454 1456 1458 1460 1461 1462 1463 1463 1464 1465 1466 1466 1467 1466
1446 1446 1448 1450 1451 1454 1457 1457 1461 1464 1468 1471 1467 1467 1448 1441 1438 1434 1432 1432 1433 1434 1436 1437 1439 1441 1444 1446 1447 1449 1451 1453 1455 1457 1458 1459 1460 1461 1462 1462 1463 1463 1463 1463
1442 1442 1443 1444 1446 1449 1453 1458 1463 1467 1470 1470 1462 1465 1449 1440 1432 1429 1428 1428 1428 1430 1432 1434 1436 1438 1440 1442 1444 1446 1448 1450 1452 1453 1455 1456 1457 1457 1458 1459 1459 1459 1459 1459
1441 1440 1439 1441 1445 1449 1452 1460 1469 1469 1471 1463 1457 1458 1442 1428 1425 1424 1424 1424 1425 1427 1429 1431 1433 1435 1437 1439 1441 1443 1445 1447 1449 1450 1452 1453 1454 1454 1455 1455 1455 1455 1455 1454
1439 1439 1436 1436 1438 1443 1448 1451 1460 1464 1464 1460 1456 1452 1435 1423 1420 1420 1421 1421 1422 1424 1426 1428 1430 1431 1433 1436 1438 1440 1442 1444 1446 1447 1449 1450 1451 1451 1451 1452 1452 1451 1451 1450
1433 1433 1430 1431 1433 1437 1445 1448 1449 1458 1461 1461 1453 1444 1432 1420 1419 1419 1419 1419 1420 1421 1423 1425 1427 1429 1431 1433 1436 1438 1440 1442 1444 1445 1446 1446 1447 1448 1448 1448 1448 1448 1447 1446
1429 1433 1430 1431 1432 1435 1436 1442 1451 1454 1455 1453 1446 1443 1433 1421 1419 1418 1417 1417 1418 1419 1421 1423 1425 1427 1429 1431 1434 1436 1438 1440 1441 1442 1443 1444 1444 1445 1445 1445 1444 1444 1443 1442
1428 1432 1432 1431 1431 1432 1437 1441 1442 1448 1450 1451 1447 1436 1420 1417 1415 1416 1415 1415 1416 1418 1419 1421 1423 1425 1427 1429 1432 1434 1435 1437 1438 1439 1440 1441 1441 1441 1441 1441 1440 1440 1439 1438
1425 1430 1431 1429 1427 1427 1429 1432 1438 1444 1448 1450 1449 1434 1414 1414 1413 1413 1414 1415 1416 1417 1418 1419 1421 1423 1425 1427 1429 1431 1433 1434 1435 1437 1437 1438 1438 1438 1437 1437 1437 1436 1434 1433
1422 1428 1430 1430 1432 1430 1428 1429 1431 1436 1443 1448 1444 1429 1414 1413 1412 1413 1413 1414 1415 1416 1417 1418 1420 1422 1423 1425 1427 1429 1430 1431 1433 1434 1434 1434 1435 1435 1434 1434 1433 1432 1430 1428
1418 1423 1424 1422 1420 1423 1426 1427 1428 1432 1437 1439 1434 1423 1415 1413 1413 1412 1413 1413 1414 1415 1415 1416 1418 1420 1421 1423 1425 1426 1428 1429 1430 1431 1431 1431 1432 1432 1431 1430 1429 1427 1425 1423
1417 1420 1419 1418 1417 1419 1419 1420 1423 1424 1424 1427 1422 1420 1412 1411 1411 1411 1411 1412 1413 1413 1414 1415 1416 1418 1420 1421 1423 1424 1425 1427 1427 1428 1428 1428 1429 1428 1427 1426 1425 1423 1421 1419
1416 1418 1418 1417 1415 1416 1416 1414 1415 1415 1416 1417 1417 1414 1408 1408 1409 1410 1410 1410 1410 1411 1412 1413 1414 1416 1417 1419 1420 1422 1423 1424 1424 1424 1425 1425 1425 1425 1424 1422 1421 1419 1416 1414
1416 1417 1418 1417 1416 1415 1415 1408 1407 1409 1408 1410 1410 1405 1405 1406 1407 1407 1407 1408 1408 1409 1410 1411 1412 1413 1415 1416 1418 1419 1420 1421 1421 1421 1422 1422 1422 1421 1420 1419 1417 1415 1412 1410
1413 1415 1417 1418 1419 1418 1403 1398 1398 1400 1401 1402 1401 1400 1400 1402 1402 1403 1404 1405 1406 1407 1408 1409 1411 1412 1414 1415 1416 1417 1418 1418 1418 1419 1419 1419 1418 1418 1417 1415 1413 1411 1408 1406
1408 1412 1416 1417 1416 1409 1402 1398 1398 1400 1399 1397 1397 1397 1398 1399 1401 1402 1402 1403 1404 1405 1406 1408 1409 1411 1412 1413 1414 1415 1416 1416 1416 1416 1416 1416 1415 1414 1413 1411 1409 1407 1404 1401
1405 1409 1414 1415 1413 1409 1399 1395 1394 1396 1399 1395 1394 1395 1397 1398 1403 1402 1401 1401 1402 1404 1405 1406 1408 1410 1411 1412 1413 1413 1413 1414 1414 1414 1414 1413 1412 1411 1409 1407 1405 1403 1400 1397
1405 1407 1409 1410 1410 1404 1398 1395 1394 1401 1397 1394 1393 1394 1394 1395 1397 1398 1399 1400 1401 1402 1404 1405 1406 1408 1409 1410 1411 1411 1411 1412 1412 1411 1411 1410 1409 1407 1406 1404 1401 1399 1396 1393
1403 1406 1407 1408 1407 1404 1396 1395 1397 1396 1393 1393 1392 1393 1393 1393 1395 1396 1397 1398 1399 1401 1402 1403 1405 1406 1407 1408 1409 1408 1409 1409 1409 1408 1407 1407 1405 1404 1402 1400 1398 1396 1393 1389
1403 1403 1402 1403 1402 1398 1395 1394 1393 1393 1392 1392 1392 1392 1393 1393 1394 1395 1396 1397 1398 1400 1401 1402 1403 1404 1405 1406 1407 1406 1406 1406 1406 1405 1404 1403 1402 1401 1399 1397 1394 1392 1389 1386
1402 1400 1400 1401 1398 1396 1394 1393 1392 1392 1392 1391 1391 1392 1392 1392 1393 1394 1395 1396 1397 1399 1400 1401 1402 1402 1403 1404 1404 1405 1404 1404 1403 1402 1401 1400 1399 1397 1395 1393 1391 1389 1386 1383
1400 1399 1399 1398 1396 1394 1392 1392 1391 1391 1391 1391 1390 1391 1391 1391 1392 1393 1394 1395 1396 1397 1398 1399 1400 1401 1401 1402 1402 1402 1402 1402 1401 1400 1399 1397 1396 1394 1392 1390 1388 1386 1383 1381
1397 1398 1398 1395 1393 1394 1392 1391 1391 1390 1389 1389 1389 1389 1390 1390 1391 1392 1393 1394 1395 1396 1397 1398 1398 1399 1400 1400 1400 1400 1400 1399 1398 1397 1396 1394 1393 1391 1389 1387 1384 1382 1380 1378